Location: ?
(35.3544°N, 139.4507°E)
Time: 02:09:40
(UTC+00:00)

NOAA 11 - Pass Details

Date: 03 August 2024
Orbit: 832 x 848 km, 98.5° (Epoch: 18 September)

Event Time Altitude Azimuth Distance (km) Brightness Sun altitude
Rises 17:44:44 0° 15° (NNE) 3,384 8.3 -22.8°
Reaches altitude 10° 17:47:07 10° 18° (NNE) 2,448 7.4 -22.5°
Maximum altitude 17:52:32 71° 102° (ESE) 884 4.3 -21.7°
Enters shadow 17:55:19 29° 179° (S) 1,472 5.1 -21.3°
